Погода в Абаге

Россия / Республика Саха (Якутия)     61°02′42″N   132°16′45″E
темп.,
°C
ветер,
м/с
пор.,
м/с
влажн.,
%
обл.,
%
осадки,
мм/ч
давл.,
гПа
погр.,
м
28 сентября, вт
вт2800:00+2св31178100 0.0 1008326
03:00+2св31074100 0.0 1006325
06:00+2св41171100 0.0 1004372
09:00+4всв41060100 0.1 1003429
12:00+5всв3873100 0.7 1002880
15:00+4в2795100 2.9 1004622
18:00+3вюв019746 0.7 100541
21:00+1ссв119770 0.7 100714
29 сентября, ср
ср2900:00+2с249385 0.0 1009134
03:00−1ссв268028 0.0 1009159
06:00−3св128475 0.0 101039
09:00+1св256892 0.0 1010262
12:00+3всв487798 0.0 1009441
15:00+6всв5971100 0.0 1007934
18:00+7всв4117197 0.0 1006782
21:00+5всв51186100 0.8 1006966
30 сентября, чт
чт3000:00+3в51397100 3.6 1005888
03:00+3в41297100 6.6 1005775
06:00+5вюв41094100 0.3 1005532
09:00+4вюв41096100 0.3 1006634
12:00+3в4997100 0.6 1006570
15:00+3в3997100 1.6 1005523
18:00+3всв3897100 0.2 1005738
21:00+2всв3897100 0.4 1003631
1 октября, пт
пт100:00+2всв3897100 2.1 1002551
03:00+2ссв3898100 3.9 1000488
06:00+1св2799100 2.4 1000363
09:00+1ююв2598100 3.2 1000365
12:00+2ююв2494100 0.2 1000356
15:00+2ю2597100 0.4 1001488
18:00+2ю2596100 0.1 1002398
21:00+1ю1498100 0.3 1003264
2 октября, сб
сб200:00+1ю1399100 0.1 1003135
03:00+1юз2597100 0.2 1004308
06:000юз2595100 0.1 1006368
09:000юз348676 0.2 1007480
12:00+2юз3472100 0.0 1008968
15:00+2зюз2477100 0.1 1009749
18:00+1юз1186100 0.0 101134
21:000зюз1189100 0.0 101232